Starlink 34174

operational
NORAD ID: 64097 Int'l Des: 2025-110 Owner: SPXS Country: US Constellation: starlink
LEOCIRCULAR

About Starlink 34174

Description loading...

Live Position

Loading 3D Globe...

Upcoming Passes

Altitude History

Altitude vs Time

uPlot chart will show altitude changes over time

Two-Line Element Set

1 64097U 25110B 26102.87082681 .00012308 00000-0 42683-3 0 9996
2 64097 53.1594 228.1452 0000926 115.4648 244.6449 15.30210977 51111
Epoch: Apr 12, 2026 • Age: 9 hours

Current Status

Altitude 489.6 km
Velocity 7.62 km/s
Sub-Earth Point -42.32°S, 161.18°E
Launch Date May 23, 2025
Age 0.8 years
Type internet

Technical Details

Classification Payload
Mass 575.00 kg
Dry Mass 530.00 kg
Total Mass 575.00 kg
Length 0.30 m
Diameter 4.10 m
Span 29.00 m
Shape Box + pan
Manufacturer SPXS
Bus Type Starlink V2MO
Phase Status In Orbit
Owner/State SPXS/US

Large Constellations

Loading constellations...